User: anonymous   Login
Location: Caltech
(34.1382°N, 118.1253°W)
Time: 17:21:08
(UTC-07:00)
Language:

Cosmos 1939 Rocket - Orbit

View from above orbital plane
View from above orbital plane
View from above satellite
View from above satellite

Ground track
Ground track

The orbit data is extracted from the following two-line orbital elements,

1 19046U 88032B   16240.82836932  .00001008  00000-0  80398-4 0  9996
2 19046  97.5717 289.4624 0039478 250.0416 109.6555 15.01970866528607
Epoch (UTC): 27 August 2016 19:52:51
Eccentricity: 0.0039478
inclination: 97.5717°
perigee height: 533 km
apogee height: 588 km
right ascension of ascending node: 289.4624°
argument of perigee: 250.0416°
revolutions per day: 15.01970866
mean anomaly at epoch: 109.6555°
orbit number at epoch: 52860

The dashed part of the orbit path shows where the satellite is in the earth's shadow,  

DLR